Huron, SD

4:47 PM CST on December 07, 2019 (GMT -0600)
Huron Regional

Weather History for KHON - November, 2019

Change the Weather History Date:

Tuesday, November 12, 2019

  Actual Average Record
Temperature  
Mean Temperature 20 °F 35 °F  
Max Temperature 34 °F 45 °F 71 °F (1887)
Min Temperature 5 °F 24 °F -6 °F (1986)
Degree Days  
Heating Degree Days 46 30  
Month to date heating degree days 442 326  
Since 1 July heating degree days 1218 1056  
Cooling Degree Days 0 0  
Month to date cooling degree days 0 0  
Year to date cooling degree days 714 742  
Moisture  
Dew Point 14 °F    
Average Humidity 74    
Maximum Humidity 88    
Minimum Humidity 54    
Precipitation  
Precipitation 0.00 in 0.03 in 1.29 in (1993)
Month to date precipitation 0.34 0.41  
Year to date precipitation 35.48 21.92  
Snow  
Snow 0.00 in 0.20 in 5.00 in (1922)
Month to date snowfall 2.7 2.0  
Since 1 July snowfall 8.5 3.1  
Since 1 September snowfall 8.5 3.1  
Snow Depth T in    
Sea Level Pressure  
Sea Level Pressure 30.17 in    
Wind  
Wind Speed 10 mph ()    
Max Wind Speed 25 mph    
Max Gust Speed 40 mph    
Visibility 10.0 miles    
Events      
T = Trace of Precipitation, MM = Missing Value Source: Averaged Metar Reports

Daily Weather History Graph

Daily Weather History Graph

Search for Another Location

Airport or City:

Astronomy

Nov. 12, 2019 Rise Set
Actual Time 7:24 AM CST 5:08 PM CST
Civil Twilight 6:53 AM CST 5:40 PM CST
Nautical Twilight 6:18 AM CST 6:14 PM CST
Astronomical Twilight 5:44 AM CST 6:49 PM CST
Moon 5:37 PM CST (11/12) 7:15 AM CST (11/12)
Length of Visible Light 10h 46m
Length of Day
9h 44m
Full, 100% of the Moon is Illuminated
Nov 12
Full
Nov 19
Last Quarter
Nov 26
New
Dec 4
First Quarter
Dec 11
Full

Hourly Weather History & Observations

Time (CST) Temp. Windchill Dew Point Humidity Pressure Visibility Wind Dir Wind Speed Gust Speed Precip Events Conditions
12:55 AM 6.1 °F -4.3 °F 1.9 °F 83% 30.66 in 10.0 mi South 5.8 mph - N/A   Clear
1:55 AM 6.1 °F -4.3 °F 3.0 °F 87% 30.65 in 10.0 mi South 5.8 mph - N/A   Clear
3:55 AM 6.1 °F -6.8 °F 3.0 °F 87% 30.57 in 10.0 mi South 8.1 mph - N/A   Clear
4:55 AM 7.0 °F -6.6 °F 3.9 °F 87% 30.53 in 10.0 mi South 9.2 mph - N/A   Clear
5:55 AM 8.1 °F -7.0 °F 3.9 °F 83% 30.47 in 10.0 mi South 11.5 mph - N/A   Clear
6:55 AM 8.1 °F -8.4 °F 3.9 °F 83% 30.43 in 10.0 mi SSE 13.8 mph - N/A   Clear
7:55 AM 9.0 °F -9.0 °F 5.0 °F 84% 30.38 in 10.0 mi SSE 17.3 mph 25.3 mph N/A   Clear
8:55 AM 12.9 °F -4.9 °F 7.0 °F 77% 30.32 in 10.0 mi SSE 19.6 mph 28.8 mph N/A   Clear
9:55 AM 17.1 °F 1.0 °F 9.0 °F 71% 30.26 in 10.0 mi SSE 18.4 mph 32.2 mph N/A   Clear
10:55 AM 19.9 °F 5.2 °F 10.9 °F 68% 30.19 in 10.0 mi South 17.3 mph 31.1 mph N/A   Clear
11:55 AM 24.1 °F 9.4 °F 12.9 °F 62% 30.14 in 10.0 mi South 20.7 mph 33.4 mph N/A   Clear
12:55 PM 28.0 °F 16.1 °F 15.1 °F 58% 30.08 in 10.0 mi South 16.1 mph 33.4 mph N/A   Clear
1:55 PM 32.0 °F 20.8 °F 17.1 °F 54% 30.04 in 10.0 mi South 17.3 mph 28.8 mph N/A   Clear
2:55 PM 34.0 °F 25.0 °F 19.0 °F 54% 30.02 in 10.0 mi South 12.7 mph 23.0 mph N/A   Clear
3:55 PM 34.0 °F 25.5 °F 19.9 °F 56% 29.98 in 10.0 mi South 11.5 mph - N/A   Clear
4:55 PM 33.1 °F 23.0 °F 21.0 °F 61% 29.94 in 10.0 mi SSE 15.0 mph 23.0 mph 0.00 in   Clear
5:55 PM 30.0 °F 20.5 °F 21.9 °F 72% 29.94 in 10.0 mi SSE 11.5 mph - N/A   Clear
6:55 PM 28.9 °F 19.8 °F 21.9 °F 75% 29.93 in 10.0 mi SSE 10.4 mph 18.4 mph N/A   Clear
7:55 PM 28.0 °F 19.3 °F 21.9 °F 78% 29.91 in 10.0 mi SSE 9.2 mph - N/A   Clear
8:55 PM 28.9 °F 21.1 °F 23.0 °F 78% 29.88 in 10.0 mi South 8.1 mph - N/A   Clear
9:55 PM 28.9 °F 22.8 °F 24.1 °F 82% 29.87 in 10.0 mi SSE 5.8 mph - N/A   Overcast
10:55 PM 28.0 °F 24.2 °F 23.0 °F 81% 29.86 in 10.0 mi ESE 3.5 mph - N/A   Scattered Clouds
11:55 PM 28.9 °F 22.8 °F 24.1 °F 82% 29.84 in 10.0 mi SSE 5.8 mph - N/A   Partly Cloudy